When you browse on this site, cookies collect data to enhance your experience and personalize the content and advertising you see.
Visit our Privacy Policy to learn more. By continuing to use the site, you agree to this use of cookies and data.
  • In Schweiz
  • Länderverzeichnis
  • Für 7 Tage
  • Wassertemperatur
  • Wetterkarte
  • Widgets
  • user-avatar
    Anmelden

    Stündliche Wetter Djelfa

    Heute, 12 November, Dienstag

    Zeit Temperatur Niederschläge Wind Luftdruck Luftfeuchtigkeit
    00:00 0°C° 0 mm 15 m/S 656 mmHg 86%
    01:00 0°C° 0 mm 15 m/S 656 mmHg 87%
    02:00 0°C° 0 mm 15 m/S 656 mmHg 88%
    03:00 0°C° 0 mm 14 m/S 656 mmHg 88%
    04:00 0°C° 0 mm 14 m/S 656 mmHg 87%
    05:00 0°C° 0 mm 13 m/S 656 mmHg 85%
    06:00 0°C° 0 mm 13 m/S 656 mmHg 84%
    07:00 0°C° 0.1 mm 14 m/S 656 mmHg 83%
    08:00 +1°C° 0.1 mm 14 m/S 657 mmHg 83%
    09:00 +2°C° 0.1 mm 15 m/S 657 mmHg 82%
    10:00 +4°C° 0 mm 14 m/S 657 mmHg 77%
    11:00 +4°C° 0 mm 13 m/S 658 mmHg 71%
    12:00 +6°C° 0 mm 11 m/S 658 mmHg 66%
    13:00 +6°C° 0.1 mm 11 m/S 658 mmHg 64%
    14:00 +6°C° 0.1 mm 11 m/S 657 mmHg 61%
    15:00 +6°C° 0.1 mm 10 m/S 657 mmHg 59%
    16:00 +5°C° 0 mm 10 m/S 658 mmHg 60%
    17:00 +5°C° 0 mm 10 m/S 658 mmHg 62%
    18:00 +3°C° 0 mm 10 m/S 659 mmHg 63%
    19:00 +2°C° 0 mm 9 m/S 659 mmHg 69%
    20:00 +2°C° 0 mm 8 m/S 659 mmHg 74%
    21:00 +2°C° 0 mm 8 m/S 659 mmHg 79%
    22:00 +2°C° 0 mm 7 m/S 659 mmHg 81%
    23:00 +2°C° 0 mm 7 m/S 659 mmHg 83%

    Morgen, 13 November, Mittwoch

    Zeit Temperatur Niederschläge Wind Luftdruck Luftfeuchtigkeit
    00:00 0°C° 0 mm 7 m/S 659 mmHg 85%
    01:00 0°C° 0 mm 7 m/S 659 mmHg 82%
    02:00 0°C° 0 mm 7 m/S 659 mmHg 79%
    03:00 0°C° 0 mm 7 m/S 659 mmHg 76%
    04:00 0°C° 0 mm 7 m/S 659 mmHg 79%
    05:00 0°C° 0 mm 7 m/S 659 mmHg 82%
    06:00 0°C° 0 mm 7 m/S 659 mmHg 84%
    07:00 +2°C° 0 mm 8 m/S 659 mmHg 82%
    08:00 +3°C° 0 mm 9 m/S 660 mmHg 80%
    09:00 +5°C° 0 mm 10 m/S 660 mmHg 77%
    10:00 +6°C° 0 mm 10 m/S 660 mmHg 72%
    11:00 +8°C° 0 mm 10 m/S 660 mmHg 66%
    12:00 +9°C° 0 mm 10 m/S 660 mmHg 60%
    13:00 +9°C° 0 mm 10 m/S 660 mmHg 61%
    14:00 +9°C° 0 mm 10 m/S 660 mmHg 62%
    15:00 +9°C° 0 mm 10 m/S 660 mmHg 63%
    16:00 +9°C° 0 mm 10 m/S 660 mmHg 66%
    17:00 +8°C° 0 mm 10 m/S 660 mmHg 70%
    18:00 +8°C° 0 mm 10 m/S 660 mmHg 74%
    19:00 +8°C° 0 mm 10 m/S 661 mmHg 75%
    20:00 +7°C° 0 mm 11 m/S 661 mmHg 77%
    21:00 +7°C° 0 mm 11 m/S 661 mmHg 78%
    22:00 +7°C° 0 mm 10 m/S 661 mmHg 82%
    23:00 +6°C° 0 mm 9 m/S 661 mmHg 86%

    übermorgen, 14 November, Donnerstag

    Zeit Temperatur Niederschläge Wind Luftdruck Luftfeuchtigkeit
    00:00 +6°C° 0 mm 8 m/S 661 mmHg 90%
    01:00 +5°C° 0 mm 7 m/S 661 mmHg 90%
    02:00 +5°C° 0 mm 6 m/S 660 mmHg 91%
    03:00 +6°C° 0 mm 5 m/S 660 mmHg 91%
    04:00 +5°C° 0 mm 4 m/S 660 mmHg 92%
    05:00 +5°C° 0 mm 4 m/S 660 mmHg 93%
    06:00 +5°C° 0 mm 4 m/S 659 mmHg 94%
    07:00 +6°C° 0 mm 5 m/S 660 mmHg 87%
    08:00 +7°C° 0 mm 5 m/S 660 mmHg 80%
    09:00 +8°C° 0 mm 6 m/S 660 mmHg 73%
    10:00 +10°C° 0 mm 7 m/S 660 mmHg 59%
    11:00 +12°C° 0 mm 8 m/S 660 mmHg 45%
    12:00 +15°C° 0 mm 9 m/S 660 mmHg 32%
    13:00 +15°C° 0 mm 9 m/S 660 mmHg 30%
    14:00 +16°C° 0 mm 9 m/S 659 mmHg 28%
    15:00 +16°C° 0 mm 9 m/S 659 mmHg 27%
    16:00 +15°C° 0 mm 7 m/S 658 mmHg 32%
    17:00 +13°C° 0 mm 5 m/S 658 mmHg 37%
    18:00 +11°C° 0 mm 3 m/S 658 mmHg 42%
    19:00 +10°C° 0 mm 4 m/S 657 mmHg 52%
    20:00 +8°C° 0 mm 4 m/S 657 mmHg 63%
    21:00 +7°C° 0 mm 4 m/S 657 mmHg 73%
    22:00 +8°C° 0 mm 3 m/S 657 mmHg 78%
    23:00 +7°C° 0 mm 3 m/S 656 mmHg 84%

    15 November, Freitag

    Zeit Temperatur Niederschläge Wind Luftdruck Luftfeuchtigkeit
    00:00 +7°C° 0 mm 2 m/S 656 mmHg 90%
    01:00 +5°C° 0 mm 5 m/S 656 mmHg 88%
    02:00 +4°C° 0 mm 7 m/S 656 mmHg 85%
    03:00 +2°C° 0 mm 10 m/S 656 mmHg 83%
    04:00 +2°C° 0 mm 9 m/S 656 mmHg 74%
    05:00 +2°C° 0 mm 9 m/S 656 mmHg 66%
    06:00 +2°C° 0 mm 8 m/S 656 mmHg 57%
    07:00 +2°C° 0 mm 8 m/S 657 mmHg 58%
    08:00 +2°C° 0 mm 8 m/S 657 mmHg 59%
    09:00 +2°C° 0 mm 8 m/S 657 mmHg 61%
    10:00 +4°C° 0 mm 7 m/S 657 mmHg 55%
    11:00 +5°C° 0 mm 7 m/S 657 mmHg 49%
    12:00 +7°C° 0 mm 6 m/S 657 mmHg 44%
    13:00 +7°C° 0 mm 6 m/S 657 mmHg 41%
    14:00 +7°C° 0 mm 6 m/S 656 mmHg 39%
    15:00 +7°C° 0 mm 5 m/S 656 mmHg 36%
    16:00 +7°C° 0 mm 4 m/S 656 mmHg 39%
    17:00 +7°C° 0 mm 3 m/S 656 mmHg 42%
    18:00 +7°C° 0 mm 2 m/S 657 mmHg 44%
    19:00 +7°C° 0 mm 2 m/S 656 mmHg 47%
    20:00 +7°C° 0 mm 1 m/S 656 mmHg 49%
    21:00 +7°C° 0 mm 1 m/S 656 mmHg 52%
    22:00 +6°C° 0 mm 1 m/S 656 mmHg 55%
    23:00 +5°C° 0 mm 2 m/S 656 mmHg 57%

    16 November, Samstag

    Zeit Temperatur Niederschläge Wind Luftdruck Luftfeuchtigkeit
    00:00 +4°C° 0 mm 3 m/S 656 mmHg 60%
    01:00 +3°C° 0.1 mm 4 m/S 656 mmHg 71%
    02:00 +1°C° 0.1 mm 5 m/S 656 mmHg 82%
    03:00 -1°C° 0.1 mm 6 m/S 656 mmHg 93%
    04:00 -1°C° 0.2 mm 7 m/S 656 mmHg 89%
    05:00 -1°C° 0.2 mm 8 m/S 656 mmHg 84%
    06:00 -1°C° 0.2 mm 8 m/S 656 mmHg 79%
    07:00 0°C° 0 mm 9 m/S 656 mmHg 74%
    08:00 0°C° 0 mm 10 m/S 657 mmHg 69%
    09:00 0°C° 0 mm 10 m/S 657 mmHg 64%
    10:00 +1°C° 0 mm 11 m/S 657 mmHg 60%
    11:00 +2°C° 0 mm 11 m/S 657 mmHg 55%
    12:00 +3°C° 0 mm 11 m/S 657 mmHg 51%
    13:00 +3°C° 0 mm 11 m/S 657 mmHg 51%
    14:00 +3°C° 0 mm 11 m/S 657 mmHg 51%
    15:00 +3°C° 0 mm 11 m/S 657 mmHg 51%
    16:00 +2°C° 0 mm 11 m/S 658 mmHg 55%
    17:00 +1°C° 0 mm 10 m/S 659 mmHg 58%
    18:00 +1°C° 0 mm 10 m/S 659 mmHg 62%
    19:00 0°C° 0 mm 10 m/S 660 mmHg 65%
    20:00 0°C° 0 mm 10 m/S 660 mmHg 68%
    21:00 -1°C° 0 mm 9 m/S 661 mmHg 71%
    22:00 -1°C° 0 mm 9 m/S 661 mmHg 73%
    23:00 -1°C° 0 mm 9 m/S 661 mmHg 75%

    17 November, Sonntag

    Zeit Temperatur Niederschläge Wind Luftdruck Luftfeuchtigkeit
    00:00 -2°C° 0 mm 8 m/S 661 mmHg 77%
    01:00 -2°C° 0 mm 8 m/S 661 mmHg 80%
    02:00 -2°C° 0 mm 8 m/S 661 mmHg 83%
    03:00 -2°C° 0 mm 8 m/S 661 mmHg 86%
    04:00 -2°C° 0 mm 7 m/S 661 mmHg 87%
    05:00 -3°C° 0 mm 7 m/S 661 mmHg 87%
    06:00 -3°C° 0 mm 6 m/S 661 mmHg 88%
    07:00 -2°C° 0 mm 6 m/S 662 mmHg 81%
    08:00 0°C° 0 mm 5 m/S 663 mmHg 75%
    09:00 +1°C° 0 mm 5 m/S 663 mmHg 68%
    10:00 +3°C° 0 mm 5 m/S 663 mmHg 59%
    11:00 +5°C° 0 mm 5 m/S 663 mmHg 50%
    12:00 +7°C° 0 mm 5 m/S 663 mmHg 41%
    13:00 +7°C° 0 mm 5 m/S 663 mmHg 38%
    14:00 +7°C° 0 mm 5 m/S 663 mmHg 35%
    15:00 +8°C° 0 mm 5 m/S 663 mmHg 32%
    16:00 +8°C° 0 mm 3 m/S 662 mmHg 35%
    17:00 +7°C° 0 mm 2 m/S 662 mmHg 38%
    18:00 +7°C° 0 mm 1 m/S 662 mmHg 41%
    19:00 +5°C° 0 mm 2 m/S 662 mmHg 39%
    20:00 +5°C° 0 mm 2 m/S 662 mmHg 37%
    21:00 +4°C° 0 mm 3 m/S 663 mmHg 35%
    22:00 +4°C° 0 mm 3 m/S 663 mmHg 36%
    23:00 +3°C° 0 mm 3 m/S 662 mmHg 37%
    Mehr zeigen